FENGYUN 1C DEB

Satellite information

Favourite Embed

Satellite Type and Status

DEBRISIN ORBIT

Key statistics

Satellite FENGYUN 1C DEB at a glance.

Uptime

9662

Days in orbit

Revolutions

≈ 14.4

Per day

Orbit

SSO

Sun Synchronous Orbit

Inclination

99.0

Latest

Satellite identification and parameters

Extended collection of information and parameters for FENGYUN 1C DEB.

Object identification

Identified? True

Debris? True

Object name: FENGYUN 1C DEB

International designator: 1999-025ED

Object number (NORAD): 29835

Object ID (CCSDS): 29835

Country: PEOPLES REPUBLIC OF CHINA (PRC)

Current information (Y/N): Y

RCS size: SMALL

Orbital parameters

Period: 99.771 minutes

Inclination: 99.0213 deg

SMA: 7125.744 km

Apoapsis: 866.901 km

Periapsis: 628.317 km

RAAN: 60.1597 deg

Eccentricy: 0.016741

Argument of periapsis: 190.491 deg

Mean anomaly: 296.1948 deg

Mean motion: 14.43302868 rev/day

Mean motion (dot): 0.00001156 rev/day2

B* drag term: 0.00030388 1/REarth

Two-line elements (TLE)

Creation date: Oct. 22, 2025, 12:16 a.m.

Reference frame: TEME

Reference center: EARTH

Epoch: Oct. 21, 2025, 8:37 p.m. UTC

TLE line 0: 0 FENGYUN 1C DEB

TLE line 1: 1 29835U 99025ED 25294.85962639 .00001156 00000-0 30388-3 0 9990

TLE line 2: 2 29835 99.0213 60.1597 0167410 190.4910 296.1948 14.43302868987466

Live tracking on map

Real-time ground track for satellite FENGYUN 1C DEB.

In-orbit conjunctions

A list of the most updated potential collisions computed for object FENGYUN 1C DEB.

Target Orbit TCA Probability of collision Miss distance Type
COSMOS 970 DEB LEO 2025-09-26 01:22:50 0.0001731461 111.0 (m) DEBRIS
CZ-6A DEB SSO 2025-06-21 01:44:19 0.0001622167 262.0 (m) DEBRIS
FENGYUN 1C DEB SSO 2025-04-15 01:37:46 0.0004926249 45.0 (m) DEBRIS

Associated space launch

Chinese polar orbiting meteorological satellite

FENGYUN 1C DEB was lifted into orbit during the mission ‘Long March 4B | Feng Yun 1C’, on board a Long March 4B space rocket.

The launch took place on May 10, 1999, 1:33 a.m. from Launch Complex 7.

For more information about the launch, click the button.

Launch to space Long March 4B | Feng Yun 1C
Long March 4B | Feng Yun 1C

Agency: N/A

Status: Launch Successful

Launch date: May 10, 1999, 1:33 a.m. UTC

Rocket: Long March 4B

Launch pad: Launch Complex 7

Location: Taiyuan Satellite Launch Center, People's Republic of China

...

Latest news about this satellite

There are no fresh news available about this satellite. Check back as we update our databases every day.


Newsletter sign-up

Weekly statistics, charts and insights to help you stay on top of the space industry.